Regional Weather Roundup
Issued by NWS

Home | Current Version | Previous Version | Text Only | Print | Product List | Glossary On
Versions: 1 2 3 4 5 6 7 8 9 10 11 12 13 14 15 16 17 18 19 20 21 22 23 24 25 26 27 28 29 30 31 32 33 34 35 36 37 38 39 40 41 42 43 44 45 46 47 48 49 50
000
ASUS46 KPQR 010210
RWROR

OREGON REGIONAL WEATHER ROUNDUP
NATIONAL WEATHER SERVICE PORTLAND OR
700 PM PDT TUE MAY 31 2016

NOTE: "FAIR" INDICATES FEW OR NO CLOUDS BELOW 12,000 FEET WITH
NO SIGNIFICANT WEATHER AND/OR OBSTRUCTIONS TO VISIBILITY.

ORZ001>013-010300-
NORTHWEST OREGON


CITY           SKY/WX    TMP DP  RH WIND       PRES   REMARKS
ASTORIA        PTSUNNY   64  49  57 NW17      30.01S
NEWPORT        PTSUNNY   59  54  82 NW14      30.04S
PORTLAND       PTSUNNY   84  43  23 NW6       29.90F
VANCOUVER WA   PTSUNNY   86  37  17 NW5       29.89F
SCAPPOOSE      PTSUNNY   83  47  28 N9        29.90S
HILLSBORO      PTSUNNY   84  42  22 N3        29.91F
AURORA         PTSUNNY   84  45  25 CALM      29.91F
MCMINNVILLE    PTSUNNY   78  55  44 SW9       29.92S
SALEM          PTSUNNY   81  49  32 W14       29.91S
CORVALLIS        N/A     79  43  27 NW8       29.95S
EUGENE         PTSUNNY   80  56  43 N3        29.93S
$$

ORZ021-028-010300-
SOUTHWEST OREGON


CITY           SKY/WX    TMP DP  RH WIND       PRES   REMARKS
NORTH BEND     MOSUNNY   61  54  77 N15G21    30.01S
BROOKINGS      PTSUNNY   63  50  62 S6        29.90S
ROSEBURG       PTSUNNY   87  43  21 N10       29.91S
SEXTON SUMMIT  MOSUNNY   69  46  43 N10G21    30.03F
MEDFORD        MOSUNNY   89  45  21 N14       29.86S
$$

ORZ014>016-041-010300-
COLUMBIA GORGE


CITY           SKY/WX    TMP DP  RH WIND       PRES   REMARKS
TROUTDALE      MOSUNNY   85  46  25 CALM      29.89F
THE DALLES     MOSUNNY   86  30  13 NE7       29.90F
$$

ORZ029>031-041-044-049-050-061>064-502-503-505>511-010300-
EASTERN OREGON


CITY           SKY/WX    TMP DP  RH WIND       PRES   REMARKS
REDMOND        SUNNY     80  28  15 N13       29.99F
BEND           SUNNY     79  32  18 N7        30.00F
PRINEVILLE     MOSUNNY   79  28  15 N7        30.00F
KLAMATH FALLS  MOSUNNY   82  34  17 NE5       30.00F
LAKEVIEW       MOSUNNY   75  45  33 SE6       30.07S
HERMISTON      MOSUNNY   84  40  21 NE7       29.93F
PENDLETON      MOSUNNY   80  39  23 NE8       29.97F
JOHN DAY       SUNNY     78  32  18 NW8       30.03S
MEACHAM        SUNNY     68  37  32 CALM      30.08F
LA GRANDE      SUNNY     75  37  25 N6        30.01S
BAKER CITY     SUNNY     72  38  29 NW8       30.04S
BURNS          SUNNY     76  30  18 SE7       30.04F
ROME             N/A     82  19   9 N7        30.01F
ONTARIO        SUNNY     81  33  17 SE5       29.98S
$$



USA.gov is the U.S. government's official web portal to all federal, state and local government web resources and services.